KLM759 EHAM-MROC

Flight info

Callsign KLM759
Flight time N/A
Altitude 33000
Route IDRID L980 MANGO DCT ENHAQ DCT GAJIT DCT BAPHU DCT LESLU/M083F330 DCT RODEL DCT 51N020W 51N030W 5030N04000W 48N050W DCT NICSO DCT CARAC M201 DRYED DCT LSIER DCT FLUPS DCT MAPYL/N0493F330 DCT ZQA M329 DYNAH UG437 ULBAS UM330 GCM UG877 BONOS UZ403 PIRAS BARRA3P
Aircraft B77W/H-SDE1E2E3FGHIJ2J3J4J5M1RWXY/LB1D1

Departure

Time N/A
Airport Amsterdam Airport Schiphol (EHAM)

Arrival

Time 2026-05-06 20:59
Airport Juan Santamaría International Airport (MROC)
Time Latitude Longitude Altitude Speed Heading
2026-05-06 19:52 16.10457 -83.28400 29970 ft 510 kts 208°
2026-05-06 19:52 16.04019 -83.31351 29978 ft 508 kts 197°
2026-05-06 19:53 15.97170 -83.33111 29979 ft 506 kts 189°
2026-05-06 19:53 15.90250 -83.34508 29959 ft 507 kts 189°
2026-05-06 19:54 15.83436 -83.35899 29955 ft 507 kts 189°
2026-05-06 19:54 15.76508 -83.37345 29969 ft 507 kts 189°
2026-05-06 19:55 15.69637 -83.38793 29954 ft 507 kts 189°
2026-05-06 19:55 15.62719 -83.40251 29960 ft 506 kts 189°
2026-05-06 19:56 15.55794 -83.41707 29948 ft 506 kts 189°
2026-05-06 19:56 15.48887 -83.43158 29950 ft 506 kts 189°
2026-05-06 19:57 15.41976 -83.44608 29949 ft 506 kts 189°
2026-05-06 19:57 15.35129 -83.46044 29950 ft 506 kts 189°
2026-05-06 19:58 15.28226 -83.47491 29941 ft 505 kts 189°
2026-05-06 19:58 15.21383 -83.48924 29936 ft 506 kts 189°
2026-05-06 19:59 15.14469 -83.50371 29932 ft 506 kts 189°
2026-05-06 19:59 15.07562 -83.51816 29929 ft 506 kts 189°
2026-05-06 20:00 15.00664 -83.53257 29933 ft 505 kts 189°
2026-05-06 20:00 14.93809 -83.54689 29925 ft 506 kts 189°
2026-05-06 20:01 14.86955 -83.56120 29918 ft 505 kts 189°
2026-05-06 20:01 14.81228 -83.57314 29925 ft 506 kts 189°
2026-05-06 20:02 14.74312 -83.58757 29925 ft 506 kts 189°
2026-05-06 20:02 14.67412 -83.60194 29921 ft 506 kts 189°
2026-05-06 20:03 14.60529 -83.61628 29915 ft 506 kts 189°
2026-05-06 20:03 14.53646 -83.63060 29915 ft 506 kts 189°
2026-05-06 20:04 14.46712 -83.64502 29914 ft 506 kts 189°
2026-05-06 20:04 14.39785 -83.65941 29923 ft 507 kts 189°
2026-05-06 20:05 14.32909 -83.67369 29917 ft 507 kts 189°
2026-05-06 20:05 14.25985 -83.68806 29918 ft 507 kts 189°
2026-05-06 20:06 14.19125 -83.70230 29915 ft 507 kts 189°
2026-05-06 20:06 14.12258 -83.71654 29916 ft 506 kts 189°
2026-05-06 20:07 14.05351 -83.73085 29923 ft 506 kts 189°
2026-05-06 20:07 13.98487 -83.74504 29919 ft 505 kts 189°
2026-05-06 20:08 13.91610 -83.75928 29910 ft 505 kts 189°
2026-05-06 20:08 13.84689 -83.77360 29916 ft 505 kts 189°
2026-05-06 20:09 13.77834 -83.78777 29912 ft 505 kts 189°
2026-05-06 20:09 13.70946 -83.80200 29909 ft 504 kts 189°
2026-05-06 20:10 13.64134 -83.81605 29917 ft 504 kts 189°
2026-05-06 20:10 13.57243 -83.83027 29908 ft 505 kts 189°
2026-05-06 20:11 13.50345 -83.84450 29912 ft 505 kts 189°
2026-05-06 20:11 13.43645 -83.85830 29914 ft 505 kts 189°
2026-05-06 20:12 13.36885 -83.87223 29916 ft 505 kts 189°
2026-05-06 20:12 13.29978 -83.88644 29915 ft 505 kts 189°
2026-05-06 20:13 13.23130 -83.90053 29914 ft 505 kts 189°
2026-05-06 20:13 13.16221 -83.91473 29917 ft 505 kts 189°
2026-05-06 20:14 13.09311 -83.92893 29919 ft 505 kts 189°
2026-05-06 20:14 13.02460 -83.94300 29919 ft 504 kts 189°
2026-05-06 20:15 12.95580 -83.95713 29916 ft 504 kts 189°
2026-05-06 20:15 12.88710 -83.97122 29921 ft 503 kts 189°
2026-05-06 20:16 12.81887 -83.98520 29918 ft 503 kts 189°
2026-05-06 20:16 12.75011 -83.99929 29923 ft 503 kts 189°
2026-05-06 20:17 12.68134 -84.01338 29922 ft 503 kts 189°
2026-05-06 20:17 12.61264 -84.02744 29921 ft 503 kts 189°
2026-05-06 20:18 12.54398 -84.04147 29923 ft 503 kts 189°
2026-05-06 20:18 12.47547 -84.05548 29918 ft 503 kts 189°
2026-05-06 20:19 12.40670 -84.06953 29924 ft 503 kts 189°
2026-05-06 20:19 12.33786 -84.08361 29925 ft 503 kts 189°
2026-05-06 20:20 12.27041 -84.09737 29922 ft 504 kts 189°
2026-05-06 20:20 12.20148 -84.11142 29920 ft 504 kts 189°
2026-05-06 20:21 12.13254 -84.12548 29916 ft 504 kts 189°
2026-05-06 20:21 12.06408 -84.13944 29929 ft 504 kts 189°
2026-05-06 20:22 11.99537 -84.15344 29906 ft 500 kts 189°
2026-05-06 20:22 11.92902 -84.16697 29775 ft 481 kts 189°
2026-05-06 20:23 11.86439 -84.18014 29580 ft 464 kts 189°
2026-05-06 20:23 11.83349 -84.18643 29389 ft 458 kts 189°
2026-05-06 20:23 11.80234 -84.19276 29069 ft 455 kts 189°
2026-05-06 20:24 11.77124 -84.19907 28678 ft 454 kts 189°
2026-05-06 20:24 11.74016 -84.20538 28291 ft 453 kts 189°
2026-05-06 20:24 11.70920 -84.21166 27940 ft 451 kts 188°
2026-05-06 20:24 11.67851 -84.21789 27622 ft 449 kts 188°
2026-05-06 20:25 11.64866 -84.22396 27326 ft 447 kts 188°
2026-05-06 20:25 11.61816 -84.23015 27016 ft 444 kts 188°
2026-05-06 20:25 11.58787 -84.23630 26718 ft 442 kts 188°
2026-05-06 20:25 11.55799 -84.24237 26425 ft 440 kts 188°
2026-05-06 20:26 11.52792 -84.24847 26118 ft 439 kts 188°
2026-05-06 20:26 11.49804 -84.25454 25833 ft 437 kts 188°
2026-05-06 20:26 11.46825 -84.26058 25545 ft 435 kts 188°
2026-05-06 20:26 11.43859 -84.26660 25266 ft 433 kts 188°
2026-05-06 20:27 11.40903 -84.27259 24991 ft 432 kts 188°
2026-05-06 20:27 11.38010 -84.27846 24725 ft 430 kts 188°
2026-05-06 20:27 11.35076 -84.28440 24430 ft 429 kts 188°
2026-05-06 20:27 11.32151 -84.29032 24138 ft 428 kts 188°
2026-05-06 20:28 11.29226 -84.29623 23877 ft 427 kts 188°
2026-05-06 20:28 11.26311 -84.30215 23619 ft 425 kts 188°
2026-05-06 20:28 11.23415 -84.30802 23343 ft 423 kts 188°
2026-05-06 20:28 11.20530 -84.31387 23063 ft 421 kts 187°
2026-05-06 20:29 11.17661 -84.31967 22780 ft 419 kts 188°
2026-05-06 20:29 11.14809 -84.32545 22490 ft 417 kts 188°
2026-05-06 20:29 11.11966 -84.33120 22229 ft 415 kts 188°
2026-05-06 20:29 11.09170 -84.33685 21958 ft 413 kts 188°
2026-05-06 20:30 11.06350 -84.34256 21692 ft 411 kts 188°
2026-05-06 20:30 11.00749 -84.35388 21163 ft 408 kts 188°
2026-05-06 20:30 10.97963 -84.35952 20903 ft 406 kts 188°
2026-05-06 20:31 10.95199 -84.36510 20660 ft 404 kts 188°
2026-05-06 20:31 10.92451 -84.37066 20404 ft 403 kts 188°
2026-05-06 20:31 10.89712 -84.37634 20158 ft 402 kts 191°
2026-05-06 20:31 10.87057 -84.38403 19918 ft 402 kts 195°
2026-05-06 20:32 10.84401 -84.39326 19677 ft 401 kts 197°
2026-05-06 20:32 10.81761 -84.40269 19429 ft 400 kts 196°
2026-05-06 20:32 10.79131 -84.41187 19196 ft 398 kts 196°
2026-05-06 20:32 10.76497 -84.42081 18979 ft 397 kts 195°
2026-05-06 20:33 10.73913 -84.42941 18763 ft 395 kts 195°
2026-05-06 20:33 10.71307 -84.43803 18549 ft 394 kts 195°
2026-05-06 20:33 10.68705 -84.44664 18319 ft 393 kts 195°
2026-05-06 20:33 10.66108 -84.45527 18100 ft 391 kts 195°
2026-05-06 20:34 10.63522 -84.46387 17858 ft 390 kts 195°
2026-05-06 20:34 10.60962 -84.47239 17633 ft 388 kts 195°
2026-05-06 20:34 10.58385 -84.48096 17406 ft 387 kts 195°
2026-05-06 20:34 10.55826 -84.48946 17191 ft 385 kts 195°
2026-05-06 20:35 10.53290 -84.49789 16949 ft 384 kts 195°
2026-05-06 20:35 10.50786 -84.50622 16728 ft 382 kts 195°
2026-05-06 20:35 10.48255 -84.51462 16497 ft 381 kts 195°
2026-05-06 20:35 10.45743 -84.52297 16350 ft 378 kts 195°
2026-05-06 20:36 10.43253 -84.53124 16190 ft 375 kts 195°
2026-05-06 20:36 10.40773 -84.53946 15997 ft 373 kts 195°
2026-05-06 20:36 10.38320 -84.54759 15796 ft 372 kts 195°
2026-05-06 20:36 10.35862 -84.55575 15487 ft 372 kts 195°
2026-05-06 20:37 10.33388 -84.56394 15101 ft 371 kts 195°
2026-05-06 20:37 10.30942 -84.57205 14718 ft 370 kts 195°
2026-05-06 20:37 10.28498 -84.58015 14283 ft 369 kts 195°
2026-05-06 20:37 10.26119 -84.58804 13883 ft 370 kts 195°
2026-05-06 20:38 10.23642 -84.59625 13430 ft 364 kts 195°
2026-05-06 20:38 10.21300 -84.60405 13272 ft 346 kts 195°
2026-05-06 20:38 10.19063 -84.61149 13111 ft 329 kts 195°
2026-05-06 20:38 10.16921 -84.61855 12952 ft 318 kts 192°
2026-05-06 20:39 10.14831 -84.62065 12824 ft 296 kts 168°
2026-05-06 20:39 10.12905 -84.61503 12471 ft 291 kts 149°
2026-05-06 20:39 10.11138 -84.60479 12177 ft 295 kts 146°
2026-05-06 20:39 10.09368 -84.59378 11815 ft 300 kts 146°
2026-05-06 20:40 10.07571 -84.58268 11470 ft 302 kts 146°
2026-05-06 20:40 10.05802 -84.57185 11266 ft 297 kts 146°
2026-05-06 20:40 10.04037 -84.56114 11125 ft 288 kts 146°
2026-05-06 20:40 10.02332 -84.55081 10858 ft 284 kts 146°
2026-05-06 20:41 10.00643 -84.54059 10551 ft 281 kts 147°
2026-05-06 20:41 9.98970 -84.53048 10241 ft 280 kts 147°
2026-05-06 20:41 9.97313 -84.52045 10039 ft 272 kts 147°
2026-05-06 20:41 9.95721 -84.51081 9957 ft 261 kts 147°
2026-05-06 20:42 9.94190 -84.50158 9847 ft 252 kts 147°
2026-05-06 20:42 9.92703 -84.49257 9583 ft 247 kts 147°
2026-05-06 20:42 9.91295 -84.48329 9168 ft 242 kts 133°
2026-05-06 20:42 9.90418 -84.46890 8653 ft 238 kts 101°
2026-05-06 20:43 9.90347 -84.45271 8288 ft 233 kts 79°
2026-05-06 20:43 9.90799 -84.43694 7853 ft 233 kts 70°
2026-05-06 20:43 9.91386 -84.42188 7659 ft 224 kts 68°
2026-05-06 20:43 9.91997 -84.40738 7303 ft 226 kts 68°
2026-05-06 20:44 9.92578 -84.39238 6946 ft 231 kts 69°
2026-05-06 20:44 9.93171 -84.37715 6642 ft 230 kts 67°
2026-05-06 20:44 9.93828 -84.36258 6390 ft 224 kts 64°
2026-05-06 20:44 9.94494 -84.34816 5967 ft 228 kts 65°
2026-05-06 20:45 9.95001 -84.33331 5604 ft 223 kts 75°
2026-05-06 20:45 9.95347 -84.31843 5270 ft 212 kts 73°
2026-05-06 20:45 9.95776 -84.30440 4858 ft 205 kts 71°
2026-05-06 20:45 9.96274 -84.29108 4468 ft 199 kts 67°
2026-05-06 20:46 9.96775 -84.27839 4150 ft 194 kts 68°
2026-05-06 20:46 9.97102 -84.27002 3922 ft 193 kts 69°
2026-05-06 20:46 9.97747 -84.25268 3605 ft 198 kts 70°
2026-05-06 20:46 9.98229 -84.23943 3418 ft 201 kts 68°
2026-05-06 20:47 9.98731 -84.22669 3101 ft 197 kts 71°
2026-05-06 20:47 9.99042 -84.21803 2987 ft 185 kts 69°
2026-05-06 20:47 9.99629 -84.20253 3252 ft 185 kts 71°
2026-05-06 20:47 10.00047 -84.18977 4140 ft 185 kts 73°
2026-05-06 20:48 10.00433 -84.17763 4630 ft 188 kts 71°
2026-05-06 20:48 10.00707 -84.16860 4991 ft 204 kts 73°
2026-05-06 20:48 10.01104 -84.15475 5192 ft 216 kts 72°
2026-05-06 20:48 10.01297 -84.13876 5619 ft 241 kts 98°
2026-05-06 20:49 10.00633 -84.12285 6563 ft 254 kts 133°
2026-05-06 20:49 9.99095 -84.11292 7263 ft 271 kts 165°
2026-05-06 20:49 9.97222 -84.11304 7505 ft 275 kts 198°
2026-05-06 20:49 9.95651 -84.12342 7585 ft 279 kts 230°
2026-05-06 20:50 9.94832 -84.14087 7491 ft 285 kts 264°
2026-05-06 20:50 9.95012 -84.16068 7596 ft 276 kts 284°
2026-05-06 20:50 9.95495 -84.17951 7597 ft 276 kts 287°
2026-05-06 20:50 9.96010 -84.19797 7604 ft 275 kts 286°
2026-05-06 20:51 9.96401 -84.21710 7568 ft 275 kts 272°
2026-05-06 20:51 9.96073 -84.23609 7509 ft 279 kts 245°
2026-05-06 20:51 9.95004 -84.25204 7578 ft 278 kts 223°
2026-05-06 20:51 9.93433 -84.26308 7604 ft 278 kts 202°
2026-05-06 20:52 9.91592 -84.26855 7695 ft 280 kts 188°
2026-05-06 20:52 9.89691 -84.27161 7800 ft 279 kts 187°
2026-05-06 20:52 9.87750 -84.27445 7742 ft 280 kts 189°
2026-05-06 20:52 9.85879 -84.27996 7637 ft 285 kts 205°
2026-05-06 20:53 9.84266 -84.29143 7488 ft 286 kts 225°
2026-05-06 20:53 9.83091 -84.30781 7259 ft 288 kts 243°
2026-05-06 20:53 9.82439 -84.32680 7098 ft 283 kts 259°
2026-05-06 20:53 9.82249 -84.34640 6974 ft 275 kts 272°
2026-05-06 20:54 9.82574 -84.36540 6581 ft 275 kts 291°
2026-05-06 20:54 9.83440 -84.38255 6328 ft 269 kts 307°
2026-05-06 20:54 9.84694 -84.39607 6183 ft 261 kts 324°
2026-05-06 20:54 9.86270 -84.40487 5903 ft 257 kts 342°
2026-05-06 20:55 9.87983 -84.40822 5640 ft 253 kts
2026-05-06 20:55 9.89705 -84.40598 5492 ft 246 kts 17°
2026-05-06 20:55 9.91235 -84.39915 5374 ft 238 kts 32°
2026-05-06 20:55 9.92518 -84.38879 5167 ft 233 kts 47°
2026-05-06 20:56 9.93480 -84.37588 4993 ft 225 kts 57°
2026-05-06 20:56 9.94186 -84.36197 4811 ft 219 kts 68°
2026-05-06 20:56 9.94672 -84.34770 4696 ft 207 kts 73°
2026-05-06 20:56 9.95031 -84.33393 4581 ft 203 kts 76°
2026-05-06 20:57 9.95376 -84.31964 4451 ft 209 kts 74°
2026-05-06 20:57 9.95806 -84.30576 4261 ft 206 kts 69°
2026-05-06 20:57 9.96308 -84.29240 4073 ft 204 kts 68°
2026-05-06 20:57 9.96823 -84.27891 3854 ft 206 kts 69°
2026-05-06 20:58 9.97317 -84.26498 3724 ft 213 kts 71°
2026-05-06 20:58 9.97833 -84.25079 3501 ft 213 kts 69°
2026-05-06 20:58 9.98336 -84.23683 3300 ft 213 kts 70°
2026-05-06 20:58 9.98874 -84.22276 3006 ft 213 kts 69°
2026-05-06 20:59 9.99374 -84.20935 3028 ft 190 kts 69°
2026-05-06 20:59 9.99657 -84.20165 3043 ft 37 kts 69°
2026-05-06 20:59 9.99680 -84.20106 3044 ft 10 kts 68°
2026-05-06 20:59 9.99720 -84.20023 3044 ft 11 kts 48°
2026-05-06 21:00 9.99783 -84.20016 3042 ft 7 kts 332°
2026-05-06 21:00 9.99797 -84.20026 3040 ft 5 kts 322°
2026-05-06 21:00 9.99815 -84.20061 3038 ft 6 kts 298°
2026-05-06 21:00 9.99836 -84.20082 3041 ft 6 kts 324°
2026-05-06 21:01 9.99856 -84.20090 3042 ft 0 kts 338°
2026-05-06 21:01 9.99857 -84.20091 3042 ft 0 kts 338°